This demonstration page uses our WeatherBlox Daily Observations layout. Learn more.

Left ArrowRight Arrow

Hourly Observations for November 8, 2019

Temp ( °F °C ) Dew Point ( °F °C ) Humidity (%) Winds ( mph kmh ) Pressure ( in mb ) Visibility ( mi km ) Precip ( " mm )
12:53 am 00:53 Clear 23 -5 14 -10 68 68 SSW 7 11 30.46 1032 10 16 0.00 0.00
1:53 am 01:53 Clear 23 -5 14 -10 68 68 SSW 7 11 30.45 1031 10 16 0.00 0.00
2:53 am 02:53 Clear 23 -5 14 -10 68 68 SSW 5 7 30.44 1031 10 16 0.00 0.00
3:53 am 03:53 Clear 23 -5 15 -9.4 72 72 SSW 6 9 30.42 1030 10 16 0.00 0.00
4:53 am 04:53 Clear 23 -5 16 -8.9 74 74 S 8 13 30.39 1029 10 16 0.00 0.00
5:53 am 05:53 Clear 23 -5 16 -8.9 74 74 S 7 11 30.38 1029 10 16 0.00 0.00
6:53 am 06:53 Clear 25 -3.9 16 -8.9 69 69 S 10 17 30.37 1028 10 16 0.00 0.00
7:53 am 07:53 Sunny 26 -3.3 16 -8.9 66 66 S 10 17 30.37 1028 10 16 0.00 0.00
8:53 am 08:53 Sunny 30 -1.1 17 -8.3 58 58 SSW 12 19 30.35 1028 10 16 0.00 0.00
9:53 am 09:53 Sunny 35 1.7 18 -7.8 50 50 SSW 12 19 30.33 1027 10 16 0.00 0.00
10:53 am 10:53 Sunny 41 5 19 -7.2 41 41 SSW 16 26 30.29 1026 10 16 0.00 0.00
11:53 am 11:53 Sunny 46 7.8 21 -6.1 37 37 SSW 17 28 30.24 1024 10 16 0.00 0.00
12:53 pm 12:53 Sunny 47 8.3 23 -5 39 39 SSW 16 26 30.20 1023 10 16 0.00 0.00
1:53 pm 13:53 Sunny 50 10 23 -5 35 35 SSW 14 22 30.16 1022 10 16 0.00 0.00
2:53 pm 14:53 Sunny 53 11.7 27 -2.8 37 37 SSW 10 17 30.14 1021 10 16 0.00 0.00
3:53 pm 15:53 Sunny 55 12.8 29 -1.7 37 37 SSW 15 24 30.11 1020 10 16 0.00 0.00
4:53 pm 16:53 Sunny 53 11.7 30 -1.1 41 41 SW 7 11 30.11 1020 10 16 0.00 0.00
5:53 pm 17:53 Clear 51 10.6 30 -1.1 44 44 SSW 7 11 30.11 1020 10 16 0.00 0.00
6:53 pm 18:53 Clear 46 7.8 29 -1.7 51 51 S 6 9 30.11 1020 10 16 0.00 0.00
7:53 pm 19:53 Clear 43 6.1 29 -1.7 58 58 S 7 11 30.11 1020 10 16 0.00 0.00
8:53 pm 20:53 Clear 41 5 30 -1.1 65 65 SSW 8 13 30.10 1019 10 16 0.00 0.00
9:53 pm 21:53 Clear 40 4.4 30 -1.1 68 68 SW 6 9 30.10 1019 10 16 0.00 0.00
10:53 pm 22:53 Clear 36 2.2 28 -2.2 73 73 SW 3 6 30.10 1019 10 16 0.00 0.00
11:53 pm 23:53 Clear 40 4.4 27 -2.8 60 60 W 10 17 30.09 1019 10 16 0.00 0.00

Powered by AerisWeather